• MPC Preparation (Info)

  • MPEC 2022-G73 : 2022 GV1

    The following Minor Planet Electronic Circular may be linked-to from your own Web pages, but must not otherwise be redistributed electronically.

    A form allowing access to any MPEC is at the bottom of this page.


    Read MPEC 2022-G72 Read MPEC 2022-G74


    M.P.E.C. 2022-G73                                 Issued 2022 April 5, 13:31 UT
    
         The Minor Planet Electronic Circulars contain information on unusual
             minor planets and routine data on comets.  They are published
        on behalf of Division F of the International Astronomical Union by the
              Minor Planet Center, Smithsonian Astrophysical Observatory,
                              Cambridge, MA 02138, U.S.A.
    
                 Prepared using the Tamkin Foundation Computer Network
    
                                  MPC@CFA.HARVARD.EDU
                URL https://www.minorplanetcenter.net/    ISSN 1523-6714
    
                                    2022 GV1                                 
    
    
    Observations:
         K22G01V  C2022 04 02.30343311 31 17.287+20 12 33.75         20.14GVEG073F52
         K22G01V  C2022 04 02.31523811 31 34.298+20 11 22.12               VEG073F52
         K22G01V  C2022 04 02.32753511 31 51.971+20 10 06.32         20.17GVEG073F52
         K22G01V* C2022 04 04.92261 12 32 44.79 +15 09 11.5          19.8 RoEG073K88
         K22G01V  C2022 04 04.92457 12 32 47.03 +15 08 58.4          19.8 RoEG073K88
         K22G01V  C2022 04 04.92654 12 32 49.42 +15 08 44.4          19.7 RoEG073K88
         K22G01V KC2022 04 04.94198 12 33 07.78 +15 06 54.7          20.2 RoEG073K88
         K22G01V KC2022 04 04.94521 12 33 11.49 +15 06 32.3          19.9 RoEG073K88
         K22G01V KC2022 04 04.94844 12 33 15.46 +15 06 09.8          20.0 RoEG073K88
         K22G01V KC2022 04 04.95231 12 33 19.94 +15 05 41.5          20.2 RoEG073K88
         K22G01V KC2022 04 04.95878 12 33 27.68 +15 04 55.3          20.4 RoEG073K88
         K22G01V KC2022 04 04.96557512 33 39.82 +15 04 19.6          20.4 GXEG073I93
         K22G01V KC2022 04 04.96599 12 33 36.14 +15 04 03.6          19.8 RoEG073K88
         K22G01V KC2022 04 04.96646512 33 41.14 +15 04 16.6          20.2 GXEG073958
         K22G01V KC2022 04 04.96881312 33 43.62 +15 03 56.6          19.5 GXEG073I93
         K22G01V KC2022 04 04.96925 12 33 40.06 +15 03 40.2          20.4 RoEG073K88
         K22G01V KC2022 04 04.97153512 33 47.02 +15 03 42.4                XEG073958
         K22G01V KC2022 04 04.97196912 33 47.35 +15 03 34.5          20.1 GXEG073I93
         K22G01V KC2022 04 04.97409 12 33 45.70 +15 03 05.4          19.9 RoEG073K88
         K22G01V KC2022 04 04.97659712 33 53.00 +15 03 06.9          20.1 GXEG073958
         K22G01V pC2022 04 05.02381412 34 45.37 +14 57 18.0          20.3 GVEG073L01
         K22G01V pC2022 04 05.02536012 34 47.20 +14 57 07.0          20.6 GVEG073L01
         K22G01V pC2022 04 05.02691212 34 49.05 +14 56 55.5          21.0 GVEG073L01
         K22G01V pC2022 04 05.02846912 34 50.84 +14 56 44.2          20.8 GVEG073L01
         K22G01V pC2022 04 05.03002712 34 52.71 +14 56 33.6          20.3 GVEG073L01
         K22G01V |C2022 04 05.09253 12 36 24.42 +14 54 07.2          20.2 VuEG073807
         K22G01V |C2022 04 05.09890 12 36 31.84 +14 53 23.7          20.3 VuEG073807
         K22G01V |C2022 04 05.10522 12 36 39.09 +14 52 40.1          20.5 VuEG073807
         K22G01V mC2022 04 05.20416112 38 41.543+14 36 44.75         19.87GVEG073I52
         K22G01V mC2022 04 05.20446512 38 41.910+14 36 42.95         20.29GVEG073I52
         K22G01V mC2022 04 05.20476912 38 42.212+14 36 40.57         20.20GVEG073I52
         K22G01V mC2022 04 05.20507312 38 42.594+14 36 39.06         20.31GVEG073I52
         K22G01V KC2022 04 05.20561 12 38 39.48 +14 36 15.8          19.6 RqEG073H36
         K22G01V KC2022 04 05.21027 12 38 44.79 +14 35 42.7          19.8 RqEG073H36
         K22G01V KC2022 04 05.21521 12 38 50.52 +14 35 09.0          19.5 RqEG073H36
    
    Observer details:
    807 Cerro Tololo Observatory, La Serena.  Observers T. Linder, R. Holmes, L.
        Horn.  0.61-m f/6.5 astrograph + CCD.
    958 Observatoire de Dax.  Observer P. Dupouy.  0.50-m f/6 reflector + CCD.
    F52 Pan-STARRS 2, Haleakala.  Observers J. Bulger, K. Chambers, T. Dukes, T.
        Lowe, A. Schultz, I. Smith.  Measurers S. Chastel, M. Huber, Y.
        Ramanjooloo, R. Wainscoat, R. Weryk.  1.8-m Ritchey-Chretien + CCD.
    H36 Sandlot Observatory, Scranton.  Observer G. Hug.  0.56-m reflector + CCD.
    I52 Steward Observatory, Mt. Lemmon Station.  Observer E. J. Christensen.
        Measurers E. J. Christensen, G. A. Farneth, J. B. Fazekas, D. C. Fuls, A.
        R. Gibbs, A. D. Grauer, H. Groeller, J. K. Hogan, R. A. Kowalski, S. M.
        Larson, G. J. Leonard, D. Rankin, R. L. Seaman, A. Serrano, F. C. Shelly,
        K. W. Wierzchos.
    I93 St Pardon de Conques.  Observer F. Losse.  0.40-m f/3.7 reflector + CCD.
    K88 GINOP-KHK, Piszkesteto.  Observer K. Sarneczky.  0.60-m Schmidt + CCD.
    L01 Visnjan Observatory, Tican.  Observer K. Korlevic.  1.0-m f/2.9 reflector
        + CCD.
    
    Orbital elements:
    2022 GV1                                                 Earth MOID = 0.0183 AU
    Epoch 2022 Jan. 21.0 TT = JDT 2459600.5                 Veres                   
    M 337.40805              (2000.0)            P               Q                  
    n   0.40321403     Peri.  358.88550     -0.99428512     -0.10672474             
    a   1.8145919      Node   174.98567     +0.09817955     -0.92380874             
    e   0.4418858      Incl.    1.72702     +0.04192713     -0.36767819             
    P   2.44           H   26.61          G   0.15           U   7                  
    Residuals in seconds of arc
    220402 F52  0.1+  0.1-    220404 K88  0.1-  0.3+    220405 L01  0.3-  0.5+
    220402 F52  0.0   0.2+    220404 958  1.0+  0.5+    220405 807  0.0   0.5-
    220402 F52  0.1-  0.1-    220404 I93  0.1-  0.3+    220405 807  0.6+  0.1+
    220404 K88  0.1+  1.4-    220404 K88  0.8+  0.2+    220405 807  0.2-  0.4+
    220404 K88  1.1-  0.5-    220404 958  0.1-  2.2+    220405 I52  0.2-  0.3-
    220404 K88  0.3-  0.5-    220404 I93  0.1+  0.5+    220405 I52  0.1+  0.0
    220404 K88  0.6+  0.3-    220404 K88  0.4-  0.2+    220405 I52  0.6-  0.3-
    220404 K88  1.0-  0.3+    220404 958  0.3+  2.5+    220405 I52  0.1-  0.3+
    220404 K88  1.1+  0.9+    220405 L01  0.5-  0.1-    220405 H36  0.4+  0.2+
    220404 K88  0.4-  0.2+    220405 L01  0.3-  0.1+    220405 H36  0.2+  0.4-
    220404 K88  0.8+  0.3+    220405 L01  0.1-  0.2-    220405 H36  1.5+  0.5+
    220404 I93  0.0   0.4+    220405 L01  0.7-  0.2-
    
    Ephemeris:
    2022 GV1                 a,e,i = 1.81, 0.44, 2                   q = 1.0127
    Date    TT    R. A. (2000) Decl.     Delta      r    Elong.  Phase     V
    2022 03 06    06 04 14.4 +18 36 40   0.09466 1.0219   105.9    69.0    24.0
    ...
    2022 03 21    07 21 42.0 +23 31 48   0.05086 1.0133   108.6    68.7    22.6
    ...
    2022 03 29    09 38 04.6 +25 08 12   0.03407 1.0204   129.8    48.8    21.1
    ...
    2022 04 04    12 12 28.9 +17 01 01   0.03379 1.0308   155.6    23.7    20.4
    2022 04 05    12 34 20.2 +15 02 24   0.03509 1.0330   158.5    20.8    20.4
    2022 04 06    12 54 05.9 +13 05 27   0.03672 1.0352   160.6    18.7    20.5
    ...
    2022 04 12    14 14 05.0 +03 50 39   0.05141 1.0512   161.8    17.3    21.2
    ...
    2022 04 20    15 01 05.0 -02 32 35   0.07797 1.0782   160.3    18.3    22.2
    ...
    2022 05 05    15 29 05.3 -07 37 54   0.1385  1.1437   166.7    11.7    23.3
    
    M. P. C. Staff               (C) Copyright 2022 MPC           M.P.E.C. 2022-G73
    


    Read MPEC 2022-G72 Read MPEC 2022-G74


    MPEC number:

    Enter an MPEC number in one of the following forms:

    • 1997-B01 (the full form)
    • J97B01 (the packed version of the full form)
    • B01 (the abbreviated form)